This demonstration page uses our WeatherBlox Daily Observations layout. Learn more.

41.55636, -103.73856

Hourly Observations for January 15, 2019

Temp ( °F °C ) Dew Point ( °F °C ) Humidity (%) Winds ( mph kmh ) Pressure ( in mb ) Visibility ( mi km ) Precip ( " mm )
12:56 am 00:56 Clear 26 -3.2 11 -11.4 54 54 WNW 10 17 30.33 1027 10 16.0934 N/A
1:56 am 01:56 Clear 27 -2.9 10 -12 50 50 W 13 20 30.32 1027 10 16.0934 N/A
2:56 am 02:56 Clear 27 -2.9 10 -12.4 48 48 W 13 20 30.32 1027 10 16.0934 N/A
3:58 am 03:58 Clear 28 -2.1 9 -13 43 43 WNW 16 26 30.29 1026 10 16.0934 N/A
4:58 am 04:58 Clear 26 -3.5 10 -12.4 51 51 W 15 24 30.27 1025 10 16.0934 N/A
5:58 am 05:58 Clear 26 -3.1 8 -13.1 46 46 W 14 22 30.23 1024 10 16.0934 N/A
6:58 am 06:58 Clear 25 -4.1 9 -12.9 51 51 W 12 19 30.21 1023 10 16.0934 N/A
7:58 am 07:58 Clear 26 -3.6 8 -13.2 48 48 W 12 19 30.16 1022 10 16.0934 N/A
8:58 am 08:58 Clear 28 -2.4 6 -14.5 39 39 W 10 17 30.15 1021 10 16.0934 N/A
9:58 am 09:58 Clear 24 -4.5 7 -13.8 49 49 W 15 24 30.17 1022 10 16.0934 N/A
10:58 am 10:58 Clear 23 -5.2 6 -14.2 50 50 W 12 19 30.19 1022 10 16.0934 N/A
11:58 am 11:58 Clear 27 -2.7 7 -14.1 42 42 W 17 28 30.22 1023 10 16.0934 N/A
12:58 pm 12:58 Clear 26 -3.6 7 -13.7 46 46 W 16 26 30.24 1024 10 16.0934 N/A
1:58 pm 13:58 Clear 27 -2.8 9 -12.6 47 47 W 16 26 30.24 1024 10 16.0934 N/A
2:58 pm 14:58 Sunny 26 -3.5 10 -12.3 51 51 WNW 17 28 30.23 1024 10 16.0934 N/A
3:58 pm 15:58 Sunny 30 -0.9 12 -11.2 46 46 WNW 16 26 30.22 1024 10 16.0934 N/A
4:58 pm 16:58 Sunny 35 1.6 15 -9.3 45 45 WNW 17 28 30.23 1024 10 16.0934 N/A
5:58 pm 17:58 Sunny 39 3.8 18 -7.9 43 43 WNW 17 28 30.21 1023 10 16.0934 N/A
6:58 pm 18:58 Sunny 42 5.3 20 -6.8 42 42 NW 16 26 30.19 1022 10 16.0934 N/A
7:58 pm 19:58 Sunny 43 6 22 -5.5 44 44 NW 15 24 30.14 1021 10 16.0934 N/A
8:58 pm 20:58 Sunny 44 6.5 23 -5.2 43 43 NW 17 28 30.12 1020 10 16.0934 N/A
9:58 pm 21:58 Sunny 44 6.7 22 -5.4 42 42 NNW 13 20 30.14 1021 10 16.0934 N/A
10:58 pm 22:58 Sunny 42 5.5 23 -4.8 48 48 NNW 12 19 30.14 1021 10 16.0934 N/A
11:58 pm 23:58 Partly Cloudy 39 3.9 23 -4.8 53 53 N 12 19 30.14 1021 10 16.0934 N/A

Powered by AerisWeather